Regional Weather Roundup
Issued by NWS Midland/Odessa, TX

Skip options and go directly to product.
Home | Oldest Version | Next Version | Current Version | All | Text Only | Save Text | Print | Product List | Glossary On

Skip product version selection by date and time.   
273
ASUS44 KMAF 271601
RWRMAF
MIDLAND AREA WEATHER ROUNDUP
NATIONAL WEATHER SERVICE MIDLAND TX
1000 AM CST TUE JAN 27 2015

...IN SOUTHWEST TEXAS AND SOUTHEAST NEW MEXICO...

CITY           SKY/WX    TMP DP  RH WIND       PRES   REMARKS
ALPINE         SUNNY     59  26  27 SW9       30.38R
ANDREWS        FAIR      50  34  53 NW5       30.28R
ARTESIA        MOSUNNY   48  34  57 N5        30.32R
BIG SPRING     SUNNY     45  35  70 CALM      30.27S
CARLSBAD       SUNNY     47  35  63 N5        30.30R
DRYDEN           N/A     63  35  35 SW8       30.26R
FORT STOCKTON  SUNNY     55  36  48 W8        30.30R
GUAD PASS      NOT AVBL
HOBBS          SUNNY     54  36  50 CALM      30.29R
MARFA          SUNNY     52  30  43 CALM      30.37R
MIDLAND AIRPK  SUNNY     49  36  59 W5        30.28R
MIDLAND INTL   SUNNY     53  37  54 W3        30.28R
ODESSA         SUNNY     53  35  50 N5        30.28R
PECOS          SUNNY     49  39  68 NW6       30.30R
PRESIDIO       FAIR      51  39  63 E5        30.34R
SEMINOLE       SUNNY     50  36  57 W3        30.28R
SNYDER         SUNNY     52  37  57 N3        30.24S
WINK           SUNNY     48  33  56 W5        30.28R
$$
...OTHER STATIONS IN TEXAS...

CITY           SKY/WX    TMP DP  RH WIND       PRES   REMARKS
ABILENE        SUNNY     57  36  45 W5        30.24R
AMARILLO       SUNNY     61  34  36 W6        30.24S
AUSTIN         MOSUNNY   65  39  38 NW12      30.20R
BROWNSVILLE    SUNNY     68  52  56 SW13      30.25R
CORPUS CHRISTI MOSUNNY   65  43  44 W12       30.24R
DALLAS FTW     MOSUNNY   60  39  45 N8        30.18R
DEL RIO        SUNNY     56  41  57 W5        30.25R
EL PASO        PTSUNNY   47  32  56 N5        30.34R
HOUSTON INT    MOSUNNY   65  40  39 W9        30.17R
LUBBOCK        PTSUNNY   48  36  63 W9        30.26R
SAN ANGELO     SUNNY     50  38  63 W6        30.23F
SAN ANTONIO    MOSUNNY   65  39  38 NW5       30.22R
WACO           SUNNY     59  41  51 NW9       30.19R
WICHITA FALLS  NOT AVBL
$$
...OTHER LOCATIONS IN NEW MEXICO...

CITY           SKY/WX    TMP DP  RH WIND       PRES   REMARKS
ALAMAGORDO     PTSUNNY   41  32  70 W6        30.35R WCI  37
ALBUQUERQUE    MOSUNNY   36  27  69 CALM      30.38S
CANNON AFB     NOT AVBL
CLOVIS         MOSUNNY   52  34  50 W8        30.28S
HOLLOMAN AFB   MOSUNNY   40  33  77 CALM      30.33R
ROSWELL        PTSUNNY   45  33  63 CALM      30.30S
RUIDOSO        SUNNY     46  23  39 W6        30.40R
SANTA FE       SUNNY     39  25  57 N17       30.37R WCI  30
TRUTH OR CONSE CLOUDY    47  30  51 CALM      30.35R
TUCUMCARI      PTSUNNY   44  33  65 W8        30.26R WCI  39
$$

USA.gov is the U.S. government's official web portal to all federal, state and local government web resources and services.